Find Starlink 5590

NORAD ID: 55371 Int'l Des: 2023-013 Owner: SPXS Country: US Constellation: starlink operational
LEOCIRCULAR

Live Position

Loading 3D Globe...

About Starlink 5590

Description loading...

Upcoming Passes

Passes for default location (London). Set your location on the main map for personalized predictions.

Altitude History

Loading altitude history...

Two-Line Element Set

1 55371U 23013AS 26105.72862664 .00000012 00000-0 13705-4 0 9998
2 55371 43.0024 110.1436 0001229 271.0098 89.0607 15.11072328178076
Epoch: Apr 15, 2026 • Age: 16 hours

Current Status

Altitude 543.5 km
Velocity 7.59 km/s
Sub-Earth Point -38.34°S, 68.57°E
Launch Date Jan 26, 2023
Age 3.2 years
Type internet

Technical Details

Classification Payload
Mass 305.00 kg
Dry Mass 290.00 kg
Total Mass 305.00 kg
Length 0.20 m
Diameter 2.80 m
Span 9.00 m
Shape Box + pan
Manufacturer SPXS
Bus Type Starlink
Phase Status In Orbit
Owner/State SPXS/US

Most Searched